Theta_e
297 297 298 298 299 300 301 301 302 303 303 304 305 304 305 305 306 307 307 308 307 307 307 307 306 307 307 307 308 308 309 308 307 308 308 308 308 308 308 308 308 308 308 308 307 308 309 310 310 307 310 311 308 309 307 311 314 314 318 313 313 316 314 317 318 317 312 313 319 318 316 315 315 315 312 310 311 314 314 314 312 311 311 309 308 307 305 306
297 298 298 299 300 301 301 302 303 304 304 305 304 305 305 306 307 307 308 308 307 307 307 307 307 307 307 308 308 308 309 308 307 307 308 308 308 308 308 308 309 309 308 308 308 309 310 314 310 308 314 311 307 309 310 309 311 321 319 311 319 322 316 317 319 317 313 311 315 315 314 315 314 314 311 310 315 315 315 314 312 314 314 310 308 307 306 306
297 299 299 300 300 301 302 303 304 304 305 305 305 306 307 307 307 307 308 308 307 308 307 308 308 308 308 308 308 309 308 308 308 307 308 308 308 308 308 308 309 309 308 308 309 308 309 311 307 308 314 311 308 311 314 310 311 319 315 314 326 323 315 316 316 315 313 311 312 313 313 314 314 312 310 311 315 314 314 314 313 316 317 313 311 308 306 305
298 300 300 301 302 302 303 304 304 305 305 305 306 307 307 308 308 307 307 307 307 308 308 309 310 310 310 309 309 309 308 310 308 307 308 309 308 309 308 308 309 308 309 309 308 308 308 307 305 310 313 311 316 314 311 311 310 311 313 321 324 314 312 316 315 315 315 312 310 311 311 311 311 310 311 311 313 313 313 314 314 316 314 313 312 308 304 303
300 301 301 302 303 304 304 305 305 305 305 306 307 308 308 308 307 307 307 307 307 308 309 310 310 311 311 310 310 308 309 311 308 306 308 309 308 309 308 308 309 308 308 309 308 308 306 305 306 314 314 310 317 314 308 310 308 310 317 322 318 310 310 313 315 315 314 311 310 311 310 309 308 309 313 313 313 314 313 313 314 315 313 311 310 308 305 307
301 301 302 303 304 304 304 305 305 305 306 306 308 308 307 307 307 308 307 308 308 308 310 311 310 310 309 311 309 307 310 309 305 307 308 309 309 309 309 309 309 308 308 309 308 307 307 308 309 314 316 311 312 310 308 312 309 311 319 317 315 312 310 313 314 314 312 310 311 310 308 309 309 310 312 313 314 313 312 312 312 312 310 306 306 307 308 311
301 302 303 304 304 304 305 305 305 306 306 307 308 308 307 307 308 308 307 308 307 308 310 310 311 309 309 310 308 310 313 308 305 309 308 309 309 309 309 309 309 309 308 308 307 309 312 313 312 312 315 314 312 311 310 314 311 311 319 320 316 312 311 313 311 311 310 308 309 307 306 308 310 310 308 310 312 311 310 310 309 309 305 303 307 309 308 309
302 303 304 305 304 305 305 305 305 306 307 308 308 308 307 308 308 307 308 307 307 309 310 311 310 309 310 309 311 317 315 308 307 309 308 309 309 309 310 309 309 309 308 308 307 309 311 311 311 310 313 313 311 312 311 314 315 313 317 321 317 313 314 313 311 314 312 308 305 304 308 310 309 308 307 310 311 309 307 307 308 307 305 305 308 309 308 308
303 304 304 305 304 305 305 305 306 307 307 307 308 308 308 308 307 307 307 307 308 309 310 312 310 308 310 309 313 320 312 307 309 309 308 308 308 309 309 309 309 309 308 308 307 307 310 311 311 310 313 312 309 313 312 313 317 316 316 319 317 314 314 312 312 315 312 309 305 305 311 311 307 305 308 313 312 309 307 306 306 306 306 305 305 306 307 308
304 304 304 304 305 305 305 306 307 307 308 308 308 308 308 308 308 308 308 308 309 310 311 313 311 310 309 309 314 315 309 309 309 308 308 307 308 309 309 309 309 309 309 309 308 308 309 311 310 310 311 311 309 311 312 311 313 316 316 316 315 312 312 314 313 310 309 309 307 307 310 310 306 305 312 316 311 308 307 306 305 304 306 304 304 304 304 307
304 304 305 305 305 305 305 306 307 307 308 307 308 308 308 308 308 309 308 309 309 310 311 312 313 311 308 311 315 312 308 309 308 308 308 307 308 309 309 309 309 309 309 309 309 308 309 308 306 307 309 309 310 310 313 312 309 313 313 313 316 312 310 312 311 308 308 309 307 306 308 307 304 307 315 313 307 305 306 306 304 303 304 303 304 303 302 304
305 305 305 305 305 305 306 307 307 307 308 308 308 308 308 308 309 309 309 309 310 310 311 312 314 312 310 312 313 310 308 308 308 308 308 307 307 308 309 309 309 309 309 309 309 309 309 308 308 313 310 308 311 311 312 311 309 313 312 312 319 315 310 308 307 309 307 308 309 308 311 310 308 313 316 310 306 305 305 305 304 303 303 303 303 303 303 302
305 305 305 305 305 306 307 307 308 308 308 309 309 309 309 308 309 309 309 309 310 311 311 312 313 311 313 315 311 308 309 308 308 307 307 307 307 308 309 308 308 309 308 309 308 309 309 308 310 314 311 311 313 308 309 311 310 311 308 312 320 317 314 306 304 311 308 308 311 309 314 316 314 313 310 307 307 305 306 305 303 303 303 303 304 303 304 302
305 305 305 305 305 306 307 308 308 308 309 309 309 309 309 309 309 309 309 310 311 312 311 312 312 311 313 313 309 308 309 308 307 307 306 307 308 309 309 309 309 308 309 308 308 309 309 307 309 311 309 310 310 306 312 317 314 312 308 315 316 312 315 309 305 313 310 310 312 309 316 318 313 310 306 307 307 304 306 305 302 303 303 304 305 305 306 305
305 305 305 305 306 307 308 308 308 308 309 309 309 310 310 310 309 309 310 310 311 312 311 311 310 312 316 313 308 308 308 307 307 306 306 307 308 308 309 309 308 308 309 308 308 309 308 308 311 313 311 310 310 312 321 324 320 315 312 319 317 310 315 311 307 310 308 309 312 311 316 318 312 310 307 304 304 302 304 304 302 303 303 304 304 304 305 305
305 305 304 305 307 307 308 308 308 309 310 310 310 310 310 310 310 310 311 310 312 312 311 310 308 312 317 311 307 309 307 307 307 305 306 307 307 308 309 309 308 309 308 307 309 309 307 310 310 308 311 312 311 315 326 331 326 317 311 315 318 313 312 309 308 308 306 308 312 311 311 313 312 309 306 303 302 302 302 301 300 301 302 302 302 301 302 302
305 305 305 306 307 308 308 308 309 310 310 310 310 309 309 310 310 310 310 311 311 311 309 309 307 309 312 309 308 309 307 306 306 305 306 307 307 308 309 308 307 306 308 308 308 309 307 309 307 305 310 311 307 312 327 326 318 317 313 314 315 309 309 311 308 307 306 308 310 310 309 310 310 306 304 303 302 301 300 299 298 299 299 299 298 298 298 298
305 304 305 307 308 308 308 309 309 310 310 310 310 310 309 308 309 309 310 309 310 311 311 310 309 311 311 309 308 307 306 306 306 304 305 307 307 308 308 308 305 305 314 314 309 311 311 310 312 311 309 308 306 311 320 313 306 312 312 313 315 309 308 310 309 308 307 306 306 308 309 309 307 304 304 303 300 299 297 297 297 297 296 296 296 295 295 296
305 305 306 308 308 308 308 309 309 309 310 311 311 311 309 309 311 309 307 308 311 312 312 311 310 311 311 309 306 306 305 305 306 304 304 306 307 308 306 306 306 309 322 322 312 313 314 314 317 315 311 309 309 309 311 308 306 309 309 310 313 311 310 308 309 310 306 306 310 310 309 309 307 305 305 302 298 297 296 296 296 295 295 295 294 294 294 294
304 305 307 308 308 308 309 309 310 310 311 311 311 312 314 320 322 315 309 310 310 308 310 311 309 308 309 308 306 306 306 306 305 303 303 305 306 307 306 309 315 314 318 320 314 311 310 314 315 311 310 310 309 307 307 307 306 308 309 310 312 310 310 306 306 309 305 308 313 310 309 309 307 305 303 300 297 296 296 296 295 295 294 294 294 293 293 293
305 306 308 309 308 309 309 309 310 309 309 309 310 311 313 317 317 313 311 310 306 303 308 309 306 306 306 306 305 304 306 306 304 302 303 305 307 308 308 314 322 313 311 312 312 310 309 313 312 306 306 306 307 307 307 308 307 309 311 312 312 309 307 304 303 306 304 306 310 308 309 309 306 305 301 297 296 296 295 295 294 294 294 293 293 293 293 292
305 307 309 308 309 309 309 310 310 308 309 309 309 309 308 309 309 309 310 312 307 303 306 306 304 306 306 305 305 304 305 306 306 303 302 305 308 310 312 314 318 313 311 311 313 318 316 311 310 307 305 305 307 308 309 310 309 310 310 309 310 307 307 306 306 307 304 304 310 309 308 309 306 302 299 296 296 296 295 295 294 294 293 293 293 292 292 292
306 308 309 309 310 309 310 311 309 308 309 308 308 308 307 309 309 307 310 312 308 305 309 309 307 308 308 306 304 305 306 305 306 303 301 306 308 312 315 314 315 316 315 313 313 317 314 309 308 306 307 307 309 311 309 308 309 308 307 308 308 306 305 307 308 307 303 303 308 309 308 311 306 299 297 296 296 295 295 295 294 293 293 293 292 292 292 292
307 309 308 309 310 310 311 310 309 309 308 309 309 308 308 309 309 308 310 312 308 306 308 307 306 306 307 305 303 307 309 305 305 303 301 305 308 311 313 310 313 317 313 312 314 314 310 307 306 306 311 309 308 312 309 307 309 307 307 308 307 305 305 305 305 304 304 303 303 307 311 311 303 297 296 296 296 295 294 294 294 293 293 293 292 292 292 292
309 309 308 309 309 309 309 309 310 308 308 309 307 307 308 308 309 308 312 315 311 307 306 304 305 306 304 304 303 305 308 305 303 303 301 302 306 312 311 305 309 314 311 310 313 314 311 306 304 309 315 312 307 308 307 306 308 308 310 309 304 304 305 304 303 304 307 307 304 306 311 311 303 296 296 296 295 295 294 293 293 293 292 292 292 292 292 292
309 308 309 308 308 309 309 312 311 307 310 310 306 308 307 308 310 307 313 324 315 305 306 306 305 306 305 304 301 302 309 308 303 301 301 301 303 308 310 307 307 310 309 309 308 308 307 306 307 309 311 312 307 304 304 304 307 308 308 306 303 304 304 304 304 305 307 307 304 304 307 311 307 298 296 297 295 294 294 293 293 292 292 292 292 291 291 291
309 308 308 308 308 309 311 314 310 308 314 312 308 309 307 307 309 307 316 328 316 304 306 308 306 305 306 303 301 306 309 306 303 302 301 301 301 304 310 310 309 308 304 307 309 306 305 310 314 313 312 312 307 303 305 304 305 308 306 304 304 305 304 304 304 306 308 305 304 306 305 307 310 302 296 297 295 294 294 293 292 292 291 291 291 291 291 291
309 308 308 308 308 309 311 312 310 310 314 311 308 308 307 308 307 310 322 320 309 305 305 307 305 304 305 301 304 309 306 304 305 303 301 300 301 304 308 308 308 306 302 307 310 304 304 310 313 312 312 311 306 303 304 303 305 309 307 303 303 303 303 304 306 310 309 303 303 310 303 302 310 304 296 296 295 293 294 293 292 291 290 290 291 291 291 291
308 308 308 308 308 309 309 310 309 310 311 309 307 307 308 307 307 318 328 312 304 307 305 305 306 305 305 307 311 309 305 305 305 302 302 301 300 303 305 304 307 306 302 306 306 301 303 307 306 307 306 307 308 306 305 305 306 307 305 303 303 303 302 303 307 312 310 305 306 310 303 300 306 304 296 296 295 293 294 292 291 291 289 289 290 290 291 290
308 308 308 308 309 308 308 309 308 308 308 307 306 308 308 309 318 330 322 306 304 307 305 305 305 304 306 313 315 308 305 307 303 304 306 302 300 303 300 300 307 310 306 307 306 301 301 302 302 306 306 305 307 307 305 305 306 306 305 305 305 304 303 304 307 307 305 307 310 310 304 301 303 302 295 295 295 294 293 291 290 290 289 289 289 290 290 290
308 308 308 309 308 307 308 309 307 306 307 306 306 309 308 313 329 331 311 302 304 306 306 307 306 306 306 307 307 306 308 309 305 307 308 302 301 303 302 301 306 313 312 308 308 306 304 304 305 306 305 303 305 306 305 304 303 305 305 305 304 303 305 311 314 308 303 303 307 307 305 302 302 302 296 294 294 293 293 291 289 289 289 288 289 289 290 290
308 307 308 308 307 308 308 308 307 305 306 306 306 311 317 319 319 314 308 306 304 303 303 304 307 308 306 303 303 303 306 307 306 305 304 304 303 300 301 302 301 306 308 305 306 308 307 305 303 301 301 301 304 305 305 306 305 304 306 306 306 306 306 307 308 308 305 303 302 303 302 301 301 299 295 294 293 291 292 291 290 289 289 288 288 289 289 290
307 307 307 307 306 307 307 308 307 305 305 306 308 317 327 323 309 302 307 309 302 301 301 303 307 305 303 306 304 302 303 303 303 304 301 304 307 302 301 302 300 301 303 303 304 306 308 308 304 302 302 301 302 303 303 304 304 304 305 306 307 307 304 303 303 304 304 302 300 299 299 302 301 296 294 293 291 291 291 291 290 289 289 289 289 289 289 289
307 307 306 306 305 305 307 309 308 307 306 306 315 327 324 312 304 301 305 308 303 302 303 304 306 304 302 305 303 301 305 304 301 304 306 307 309 308 305 303 302 302 303 303 301 301 305 307 306 303 301 301 303 303 302 303 303 304 304 304 306 306 303 304 306 305 302 302 301 298 301 306 303 296 294 292 290 290 290 290 290 289 289 289 289 289 289 289
306 305 305 305 305 304 306 308 309 307 305 305 316 323 314 303 302 303 304 304 303 305 304 300 303 308 309 306 303 300 301 305 304 304 308 307 306 307 305 303 302 302 304 304 300 299 302 304 304 302 300 302 304 303 301 302 303 303 302 305 307 306 304 306 307 304 301 302 303 302 303 302 296 292 292 292 290 289 289 290 289 289 289 289 289 289 289 289
306 305 304 303 304 304 305 307 308 306 305 309 314 312 307 303 301 303 304 302 302 303 305 304 304 310 313 310 311 306 299 303 306 303 305 304 302 303 302 302 301 300 302 303 301 301 302 304 304 302 302 303 304 303 301 302 303 302 302 303 302 302 304 306 306 303 301 302 303 304 302 298 294 293 290 290 291 290 289 289 289 289 289 288 289 288 288 289
306 305 304 302 303 304 305 305 305 304 304 310 314 308 303 301 299 301 303 302 300 298 305 310 304 304 308 310 314 310 303 304 304 302 303 303 301 302 302 301 299 299 300 300 301 301 299 303 305 302 303 304 300 300 301 300 302 304 303 302 301 302 305 305 304 304 303 303 302 302 301 298 298 297 291 289 291 290 289 289 288 288 288 287 287 287 287 288
307 307 305 302 303 303 304 304 303 304 305 308 314 308 302 302 300 299 301 300 299 300 307 308 301 300 304 306 309 308 305 306 305 303 303 302 300 301 303 301 299 301 300 299 302 300 298 304 307 300 301 303 299 299 301 300 298 301 303 302 300 302 305 303 301 301 302 301 300 300 300 299 302 301 294 291 291 290 289 289 288 287 287 287 287 287 287 287
308 311 308 303 303 303 303 303 302 304 307 311 314 309 304 304 303 301 301 299 299 304 309 305 300 301 304 303 306 308 306 305 305 304 302 300 300 299 300 300 299 302 300 298 301 301 299 303 304 301 300 301 301 300 300 300 299 300 302 300 298 299 300 300 300 300 300 300 300 300 299 298 300 298 293 291 291 290 289 288 287 286 286 286 286 287 287 287
306 312 308 301 303 304 303 303 303 306 310 308 308 306 303 304 305 302 299 299 301 303 304 304 302 303 305 303 303 304 305 305 305 304 302 300 300 300 300 300 301 301 299 300 301 300 300 301 302 303 301 300 301 299 297 298 299 301 303 300 297 298 298 297 298 298 299 299 299 299 299 298 296 292 290 291 291 290 289 287 287 286 286 286 286 286 286 286
308 316 308 301 304 304 305 307 306 307 311 307 304 305 304 303 304 304 300 298 302 302 301 305 305 303 304 304 302 302 305 307 307 305 304 301 300 300 298 295 298 299 300 304 303 299 301 302 301 303 301 300 300 298 296 297 296 298 301 298 296 296 297 298 298 298 298 298 298 298 298 297 295 291 291 292 291 289 288 287 286 286 286 286 286 286 286 286
314 318 306 302 304 303 306 310 305 306 312 308 303 304 305 304 302 303 302 299 302 303 302 303 304 304 304 304 304 304 305 308 308 304 302 301 299 299 296 289 291 295 298 303 301 298 300 301 301 303 301 299 299 295 294 294 293 293 294 294 295 294 295 297 297 296 296 296 296 296 294 295 295 293 292 292 291 289 288 286 286 286 285 286 286 285 286 286
314 310 302 302 304 303 307 311 308 306 307 303 300 300 301 303 304 303 302 302 303 304 304 304 302 302 303 303 304 306 304 303 305 303 302 302 300 297 292 288 291 295 298 301 300 297 299 300 301 302 300 297 296 294 294 294 294 294 292 291 293 292 293 295 294 293 294 294 294 292 291 293 294 294 292 291 291 290 288 286 286 285 285 285 286 285 285 286
309 303 303 304 302 304 312 314 310 308 305 302 302 303 300 300 304 305 303 303 304 304 305 305 302 301 302 302 303 305 303 301 301 300 300 302 300 294 288 287 292 298 299 299 299 297 298 302 303 303 300 297 296 295 296 296 297 294 290 289 291 290 291 292 292 292 292 293 291 290 290 292 292 292 290 290 290 289 287 286 286 285 285 285 285 285 285 285
311 307 309 306 300 304 310 309 310 313 311 308 307 305 303 301 301 303 303 303 302 303 304 303 300 301 302 301 302 305 303 300 300 301 301 302 300 296 290 288 291 297 297 294 293 295 298 301 302 302 299 297 297 297 298 298 297 294 291 289 290 290 290 291 291 291 291 291 290 289 290 290 290 290 289 289 289 287 286 286 286 285 285 285 285 285 285 285
316 313 315 313 303 301 303 301 308 316 313 315 312 303 302 303 300 299 302 303 302 301 304 302 300 301 302 303 307 310 306 300 300 303 305 304 302 299 291 288 291 294 295 292 291 295 301 301 301 302 300 298 299 298 297 297 297 297 293 290 290 290 290 290 290 290 290 290 289 290 290 289 289 289 289 289 288 286 286 286 285 285 285 285 285 285 285 285
317 310 308 311 308 310 310 304 308 312 308 312 311 301 304 308 303 301 301 300 301 302 303 302 301 301 303 305 307 307 304 300 299 301 302 302 303 300 291 289 292 292 293 294 292 295 302 301 300 302 299 299 299 297 296 297 297 295 292 289 289 289 289 289 289 289 289 289 289 289 288 289 289 288 289 288 287 286 285 285 285 285 285 285 285 285 285 285
313 307 301 303 306 311 311 305 306 309 308 310 307 301 307 312 307 306 303 300 301 301 300 302 302 301 302 302 303 303 303 303 301 301 301 300 302 301 296 296 296 293 295 298 295 295 299 299 298 298 298 299 298 296 296 297 295 291 289 289 289 288 289 289 288 288 288 289 288 288 288 288 288 288 288 287 286 285 285 285 285 285 285 285 285 285 285 285
305 306 300 301 305 306 304 302 305 308 309 312 310 304 307 310 305 303 301 302 304 301 299 301 302 301 301 300 302 302 301 301 301 302 302 300 299 301 301 301 298 293 296 300 298 294 297 301 300 297 296 297 296 296 297 297 294 291 289 289 289 289 289 288 288 288 288 288 288 287 287 287 287 288 287 286 285 285 285 285 285 285 285 284 284 285 285 285
308 310 304 305 307 304 302 304 309 314 311 310 311 305 304 308 305 301 299 300 302 301 300 303 302 301 301 301 303 303 300 298 299 299 299 299 299 300 300 299 298 297 299 301 299 295 295 299 300 296 296 297 296 297 297 296 295 292 290 290 289 289 289 288 288 288 287 287 287 286 286 285 286 287 286 285 285 285 285 285 284 284 284 284 284 285 285 286
303 302 302 311 310 302 304 306 307 317 317 310 310 305 303 305 303 301 301 299 300 301 300 301 303 302 302 302 302 303 300 297 298 298 298 298 299 299 297 295 295 298 301 299 296 297 297 297 297 295 296 296 295 295 294 293 293 292 291 291 289 289 289 288 288 287 287 286 286 285 284 285 286 286 285 284 285 284 285 284 284 284 284 284 284 285 285 286
301 298 299 311 310 301 304 307 306 314 311 303 305 305 303 304 302 301 301 301 303 303 299 299 301 302 306 305 300 298 297 296 296 295 294 295 295 294 294 293 292 296 299 297 293 292 294 297 297 296 296 296 294 294 292 291 292 293 292 290 289 289 288 288 287 286 286 286 285 284 284 285 285 284 284 284 284 284 284 284 284 284 284 284 285 285 286 286
Wind_Speed
2 3 3 3 4 4 5 5 6 7 7 8 9 9 10 10 11 12 12 11 11 12 14 14 12 9 5 4 3 3 5 10 17 21 15 9 13 15 13 12 11 13 13 13 14 11 8 11 13 13 8 4 4 1 2 3 2 4 4 2 3 3 3 5 6 6 3 5 6 5 0 3 8 5 3 2 1 4 6 7 6 5 9 12 15 13 6 3
2 2 2 3 3 4 5 5 6 6 7 8 9 9 10 10 11 13 12 10 10 12 14 14 13 11 9 7 4 4 4 8 15 17 13 12 15 15 12 11 10 11 12 12 13 10 7 6 8 9 7 2 3 2 2 2 3 3 4 1 3 5 5 6 6 5 3 5 7 7 3 4 7 4 2 4 7 5 6 9 4 6 12 13 18 18 11 6
2 2 3 3 3 4 4 5 5 7 8 9 9 9 10 10 11 13 10 9 10 12 13 14 14 14 11 8 5 5 3 6 10 9 12 15 15 15 13 10 9 11 12 11 10 7 4 2 3 5 5 2 2 3 3 3 2 2 3 1 5 6 5 5 6 6 6 5 7 8 2 2 6 3 1 3 8 8 7 10 5 7 12 10 12 12 10 10
3 3 3 3 3 4 4 5 6 7 8 8 9 9 9 10 11 11 8 8 10 12 13 13 14 13 11 8 7 6 3 6 4 7 13 16 16 16 12 10 10 11 11 10 8 5 4 3 4 5 4 2 3 3 3 2 2 1 3 4 6 3 3 7 7 7 7 4 5 6 4 5 5 2 2 1 6 10 8 8 7 10 12 11 11 7 6 10
3 3 3 3 3 4 5 6 7 8 8 8 8 8 9 10 11 8 6 7 9 11 12 12 11 10 8 7 9 8 3 5 4 8 14 14 15 15 12 12 12 10 9 9 7 4 4 4 6 6 4 2 4 4 1 2 2 1 3 5 5 4 3 8 5 6 5 3 4 5 5 6 2 1 3 3 4 7 8 7 7 9 10 10 10 7 4 7
3 3 3 4 3 4 6 6 7 8 8 7 7 8 9 11 9 5 5 6 9 11 11 12 12 11 8 5 8 8 5 3 6 10 13 13 14 13 11 12 14 11 7 6 6 4 3 5 6 4 3 2 2 2 2 3 2 1 4 2 4 5 4 5 2 4 3 2 6 4 4 3 4 5 3 5 9 10 12 11 7 9 11 10 9 8 6 8
3 4 4 3 4 5 6 7 7 8 7 7 7 9 11 10 6 4 5 6 8 9 10 12 14 13 8 2 5 10 8 1 7 11 12 12 12 12 10 11 14 12 5 5 7 4 4 6 5 4 3 3 0 1 2 3 2 2 3 5 3 5 6 5 4 5 3 6 9 2 4 5 5 6 2 4 12 13 14 12 10 11 12 10 8 9 10 10
4 4 3 4 5 6 6 7 7 7 6 6 7 9 10 8 6 6 5 5 7 8 11 13 13 14 8 1 3 6 5 3 9 12 13 12 10 11 10 9 14 12 7 7 6 2 4 4 2 4 3 2 3 2 0 3 3 3 5 5 2 3 5 5 6 8 6 7 5 1 4 8 6 2 2 10 14 11 10 9 9 10 10 9 8 11 10 10
4 3 3 5 5 6 6 7 6 6 5 6 7 8 8 8 8 6 4 5 7 8 10 12 12 12 8 2 5 5 3 6 10 12 14 15 13 11 9 8 13 13 8 8 6 3 2 1 2 3 2 1 4 2 0 2 2 5 5 3 4 5 6 6 6 7 7 5 1 1 6 8 5 1 3 11 12 9 8 9 10 9 11 11 9 10 9 10
3 3 4 5 5 6 6 6 6 5 5 5 6 6 5 6 6 6 5 5 7 8 9 10 9 11 10 5 6 6 5 7 10 11 12 17 16 11 8 8 11 11 7 6 6 4 2 4 4 4 4 2 3 2 1 2 1 4 3 4 5 7 6 4 4 6 7 3 4 2 8 7 4 1 3 8 6 7 11 13 11 8 10 12 10 9 7 9
3 3 4 4 5 6 6 6 6 5 5 5 5 5 3 3 4 6 5 5 6 6 8 9 7 8 10 8 7 4 5 8 10 12 12 18 19 11 7 8 9 9 5 5 5 4 2 5 5 4 2 1 2 0 2 3 1 1 2 5 7 6 4 4 4 5 6 1 3 2 6 5 4 0 5 7 6 7 10 13 13 10 9 10 10 10 7 7
3 3 4 4 5 6 6 6 6 5 6 6 5 4 3 2 3 4 4 4 5 6 8 10 8 4 5 7 6 3 7 10 11 14 16 19 20 10 4 6 7 6 1 2 3 3 3 4 6 5 1 1 1 1 2 1 2 2 4 3 8 8 2 3 6 5 5 4 6 5 4 5 2 4 8 8 9 11 12 13 14 13 11 10 9 9 7 6
3 3 3 5 6 6 5 6 6 6 6 5 5 4 3 1 1 1 2 3 4 7 8 9 9 5 3 4 2 5 10 12 14 18 20 20 16 5 1 4 5 3 0 1 1 2 3 2 6 5 1 3 1 1 2 4 4 0 4 3 5 9 4 3 6 7 6 5 9 7 2 6 5 8 7 7 10 14 15 13 12 12 11 11 9 9 8 7
2 3 4 5 5 5 5 5 5 5 5 6 6 5 5 2 1 0 1 4 4 8 9 7 8 5 3 1 1 8 13 13 18 24 22 20 12 3 3 5 2 2 1 1 2 3 3 4 8 6 3 4 2 2 4 6 4 1 3 3 4 5 5 7 7 7 7 4 9 9 1 6 9 11 5 5 10 11 11 12 11 11 10 11 10 10 11 9
2 2 4 5 4 4 5 5 5 5 5 5 5 5 5 3 1 0 1 3 4 9 8 5 7 4 3 2 2 9 14 14 21 27 23 18 11 5 8 6 3 3 3 1 5 8 7 7 9 5 3 4 4 5 4 5 5 4 5 3 4 3 6 10 6 6 6 5 8 9 1 6 10 12 5 6 8 8 8 10 10 12 13 13 13 12 13 13
2 3 4 4 3 4 5 5 5 5 5 6 8 8 7 3 1 1 2 3 3 8 9 6 8 5 5 2 5 9 11 12 20 27 24 16 9 9 11 5 5 6 5 6 7 7 11 9 6 3 3 6 6 5 4 5 5 4 4 3 5 4 6 9 4 5 5 4 6 7 1 5 7 11 13 11 11 10 11 12 14 15 14 14 14 14 15 16
2 3 3 3 3 4 5 5 5 7 8 9 10 12 13 10 4 1 4 5 3 6 7 7 8 3 4 4 6 7 10 12 19 28 28 17 9 12 13 6 4 7 7 8 7 6 9 8 2 1 5 6 4 4 6 5 6 4 5 2 3 2 4 7 5 4 8 5 5 4 1 7 9 11 15 12 13 14 14 16 17 16 15 16 14 15 16 17
2 3 3 3 4 4 5 6 6 6 6 6 7 9 14 17 16 13 8 2 4 5 6 8 8 3 2 8 6 9 16 15 16 27 31 19 9 11 14 7 4 6 4 6 9 7 6 4 3 3 5 6 6 7 6 1 3 4 4 3 4 3 2 5 6 5 9 8 6 4 3 9 10 10 11 12 14 15 15 15 16 17 18 18 17 16 16 17
2 2 2 3 4 5 5 5 5 3 3 4 4 4 5 8 14 20 22 14 4 3 2 5 6 4 2 7 7 15 19 10 9 24 30 22 10 6 11 9 5 5 5 4 6 7 4 4 6 5 6 7 5 3 3 5 5 5 4 2 4 6 5 7 7 4 7 8 6 3 4 9 11 11 11 12 12 15 17 17 17 17 17 17 17 16 16 18
1 2 3 4 4 4 5 6 7 6 3 1 1 0 2 3 5 8 13 13 6 4 3 2 1 2 3 5 9 19 16 3 5 20 32 24 9 4 7 9 7 8 6 1 4 4 4 6 6 3 5 6 5 3 5 5 4 4 3 2 5 5 7 8 6 5 4 5 5 1 4 9 9 9 9 10 13 18 18 18 18 16 16 16 17 17 18 16
2 2 3 5 5 4 6 7 10 11 7 6 5 4 1 1 4 2 2 5 2 2 3 1 1 0 5 5 9 15 7 1 4 17 34 25 6 4 7 7 8 7 4 2 3 4 5 7 4 5 6 6 4 3 3 2 2 2 2 3 5 3 7 9 4 4 4 5 4 2 7 11 8 7 8 10 16 18 16 16 17 17 16 14 16 18 17 14
3 3 5 5 5 6 7 8 10 12 12 13 13 8 3 4 4 3 1 4 2 3 2 2 2 3 6 3 9 12 3 4 8 17 33 25 9 6 4 6 8 3 6 3 2 5 7 4 5 7 5 3 1 2 2 1 2 1 1 1 4 3 6 9 2 2 4 3 5 4 6 10 7 5 8 12 13 11 11 13 13 15 16 15 15 16 16 17
4 5 6 6 5 6 6 7 8 11 15 17 13 7 4 3 3 2 3 4 1 3 3 3 3 5 7 4 12 14 6 7 6 13 28 20 7 5 4 6 7 3 7 7 5 4 4 3 4 3 1 2 3 4 5 3 1 1 1 0 5 4 3 5 2 3 7 2 5 5 3 6 5 5 9 11 9 8 10 12 13 14 14 13 12 13 15 18
5 7 7 6 6 6 5 5 5 8 13 14 12 8 5 3 2 2 3 2 1 2 0 0 2 3 5 4 15 12 4 4 1 9 23 14 4 3 4 4 5 5 5 4 6 6 1 4 1 3 5 6 4 5 6 6 5 3 4 2 4 6 3 6 6 8 8 2 3 4 4 3 2 5 7 6 6 10 12 13 15 14 12 11 11 13 14 15
6 8 7 6 7 6 4 3 2 5 7 7 8 7 6 5 2 2 3 3 3 4 2 1 2 6 5 7 17 8 3 4 2 6 16 10 4 3 3 1 4 6 5 1 5 4 1 4 1 3 5 7 5 4 4 3 6 6 3 4 4 7 7 7 8 8 6 3 2 4 4 3 2 6 7 5 9 13 13 15 17 15 14 13 13 14 13 13
7 9 7 6 7 7 3 1 2 3 4 3 4 4 3 5 4 2 4 5 4 4 6 5 3 10 10 10 14 4 3 5 2 6 14 11 4 3 3 4 3 4 3 0 3 1 2 3 3 3 3 6 6 4 2 2 6 7 3 3 3 6 8 8 6 3 3 4 4 3 2 5 4 5 6 6 10 14 12 15 16 14 14 14 13 13 13 14
8 8 5 4 8 10 4 0 1 2 3 2 3 4 2 3 3 2 3 6 4 2 5 6 4 10 11 10 12 4 4 8 6 7 13 12 7 2 5 4 2 3 1 2 4 1 2 6 6 5 4 6 6 5 2 2 4 6 3 1 8 10 8 6 2 1 2 4 4 3 3 2 4 1 3 4 7 13 14 14 15 14 15 15 13 13 13 14
7 6 3 2 8 11 6 2 2 1 1 2 4 4 2 1 0 1 5 5 3 2 2 4 4 8 9 9 11 7 2 6 4 6 13 14 9 3 5 3 3 1 2 5 4 4 1 4 5 5 5 5 3 4 3 3 0 7 5 5 8 7 5 2 3 3 2 3 5 4 1 1 6 3 4 4 6 12 13 12 13 14 15 16 14 14 13 14
5 4 2 2 5 8 8 4 2 2 2 3 4 3 0 1 1 3 6 4 2 2 1 2 5 7 9 8 8 5 2 4 3 7 13 13 12 7 4 1 5 3 3 5 4 5 2 1 1 2 3 3 4 6 3 5 3 8 7 6 2 1 1 2 3 2 2 2 4 6 0 1 6 3 5 5 6 9 10 9 10 11 14 15 14 14 13 13
5 3 0 3 4 7 8 4 4 3 3 3 2 1 0 2 4 6 5 1 1 3 1 3 4 4 9 8 7 6 5 4 2 6 7 5 10 9 4 0 5 5 5 5 4 3 3 1 2 2 1 2 4 7 3 6 5 6 6 6 4 3 2 3 2 3 3 2 6 6 2 1 4 3 2 4 4 4 6 7 10 10 12 14 13 12 12 12
6 4 3 4 4 7 7 4 4 4 3 2 2 1 1 3 5 7 3 1 1 4 4 4 4 4 8 6 4 7 5 5 6 7 6 4 8 10 5 4 4 5 7 7 5 7 5 2 0 1 1 1 3 6 1 2 3 4 5 5 6 5 4 4 4 4 3 5 7 5 2 2 4 3 2 2 2 3 4 6 11 12 11 12 12 11 11 10
7 5 5 6 6 6 6 4 5 4 2 2 1 2 3 4 5 3 1 4 3 3 3 2 4 5 6 3 3 6 5 5 5 5 4 4 6 7 6 4 3 4 7 4 6 8 5 2 3 3 1 1 2 5 5 4 5 6 5 5 6 5 6 5 5 3 1 7 7 2 1 2 4 2 2 2 2 4 5 5 8 11 11 12 12 11 9 9
7 5 5 8 9 8 7 5 5 2 2 2 1 5 7 6 3 1 3 4 2 2 1 1 4 5 5 4 5 6 3 3 6 5 2 2 4 4 4 4 3 3 3 2 4 6 5 6 5 5 2 0 2 4 6 5 5 6 3 3 4 4 6 6 5 4 5 9 7 1 1 3 2 0 3 3 3 2 4 5 6 8 9 11 11 10 9 10
9 8 8 11 14 13 10 5 3 3 2 2 4 6 9 6 0 1 3 3 1 3 2 1 5 5 4 4 4 5 3 3 5 5 4 4 5 4 4 6 7 4 1 2 2 3 5 6 4 3 2 2 2 2 1 4 4 3 2 3 3 3 2 4 4 4 7 11 9 3 1 4 2 0 6 5 3 1 4 5 5 6 7 8 9 9 10 11
9 13 17 19 19 18 13 4 2 5 3 6 8 7 8 3 3 1 2 4 2 4 4 2 4 5 5 4 3 3 2 3 4 5 5 4 3 2 3 4 6 4 3 3 1 1 3 5 7 3 1 1 3 1 2 1 4 2 2 3 3 1 3 3 5 5 5 8 7 4 3 2 1 1 3 3 2 1 4 5 5 8 9 9 9 10 10 10
8 15 21 23 23 20 14 7 4 5 4 7 9 6 3 2 2 2 1 2 1 3 5 5 5 5 5 5 4 5 3 2 3 5 3 3 1 1 2 1 2 4 3 1 1 1 2 5 8 6 4 1 1 3 1 2 2 2 2 3 4 3 6 2 5 3 2 5 5 3 5 1 1 3 4 4 5 4 7 9 9 11 13 13 12 10 11 10
5 8 15 24 25 18 12 8 5 6 6 8 9 4 2 2 2 3 1 2 0 1 3 4 4 4 3 4 4 7 6 3 4 5 3 2 1 1 1 1 1 2 1 1 2 1 0 6 7 4 5 5 2 1 2 1 1 2 2 5 5 0 4 2 2 3 4 6 5 5 10 8 3 3 3 3 8 11 13 14 14 16 18 17 14 14 14 13
3 1 8 23 27 17 10 5 6 8 8 9 8 4 2 1 2 3 1 1 1 1 5 3 1 2 1 1 4 7 6 4 5 4 2 2 2 2 2 2 1 1 2 1 1 0 2 4 7 1 4 8 2 3 4 4 3 2 1 3 3 2 3 2 2 4 6 8 6 7 12 9 2 2 3 6 10 13 14 14 15 19 20 17 16 19 20 17
5 1 4 19 23 14 9 8 9 10 9 7 5 3 1 1 2 2 1 0 0 2 5 1 1 2 1 1 2 5 3 2 3 3 2 2 2 3 3 1 2 1 2 0 1 1 1 1 6 4 3 8 6 4 4 5 5 4 3 4 3 1 3 3 2 2 4 7 8 8 11 8 1 3 3 5 7 10 12 13 14 17 19 17 16 17 17 17
4 3 2 17 17 9 18 23 16 9 8 5 2 2 1 1 2 1 1 0 0 2 2 0 0 2 2 1 1 2 2 1 1 2 2 1 2 3 3 1 3 4 3 3 3 1 1 1 4 6 4 5 4 3 4 2 3 4 5 5 5 2 1 3 2 1 1 5 6 7 10 7 1 1 2 4 5 7 9 12 14 16 17 17 17 16 15 15
4 4 4 19 12 4 13 23 13 5 6 4 1 2 2 0 1 2 1 1 0 0 1 3 3 1 0 2 2 1 2 2 1 1 1 2 3 3 2 1 3 5 3 4 4 1 2 1 3 6 6 5 5 3 4 5 6 4 3 3 4 2 2 4 5 2 2 3 5 6 9 7 1 2 2 3 5 7 10 13 14 16 18 17 15 15 14 14
6 4 6 16 10 11 13 11 4 3 5 3 2 2 1 1 1 2 1 0 0 1 2 3 2 1 2 1 2 1 2 2 2 1 0 0 2 2 2 2 3 4 1 2 2 2 0 2 1 6 5 4 4 5 8 10 13 10 5 3 3 2 4 2 5 4 3 5 7 6 8 7 1 3 2 3 7 8 11 14 15 16 17 16 15 16 16 16
5 3 6 12 4 8 14 7 3 6 4 0 1 1 1 2 1 2 2 2 2 1 2 1 0 0 1 1 1 1 2 2 2 1 1 1 1 2 3 5 6 4 1 2 2 2 1 2 2 6 6 3 3 5 4 5 10 9 5 4 3 2 0 3 4 3 3 6 5 4 8 7 1 1 5 9 12 10 10 15 18 17 16 16 18 18 16 17
3 2 6 16 7 4 8 5 2 4 2 0 2 3 3 1 2 3 2 3 2 1 2 1 1 1 0 1 1 1 3 2 1 2 2 0 0 1 3 5 5 3 3 1 2 3 2 1 2 4 7 8 6 3 4 3 5 4 2 3 2 3 4 2 2 1 2 5 7 6 9 8 5 9 15 18 16 11 12 16 17 17 17 16 17 17 17 17
4 1 4 17 21 13 6 3 6 5 2 2 4 4 4 2 2 1 0 1 0 2 1 1 1 0 1 1 2 2 2 2 2 2 3 1 2 1 2 5 4 2 2 2 2 3 2 0 2 4 4 8 7 7 7 5 3 1 2 4 4 5 7 4 2 2 3 8 11 8 9 13 15 17 21 21 16 12 15 19 18 18 18 17 16 17 17 17
4 4 3 9 15 12 4 1 5 5 4 4 4 3 3 2 1 1 2 1 0 1 1 2 1 1 2 4 4 3 2 1 1 2 3 3 4 1 1 3 3 1 2 3 2 1 2 0 1 4 2 6 7 9 7 5 4 3 3 5 4 4 5 4 2 3 6 11 11 8 11 20 22 22 22 18 14 14 18 20 19 18 18 18 17 17 18 18
3 3 2 2 4 5 5 5 5 4 3 3 3 2 3 3 3 1 1 1 0 1 1 2 3 3 3 4 5 3 5 5 3 2 2 3 4 3 1 1 1 4 3 2 2 3 4 3 1 3 5 7 9 12 8 5 2 4 0 3 4 3 4 4 3 6 10 10 9 12 19 23 23 23 21 15 13 17 20 20 19 17 17 18 17 19 23 21
3 3 1 0 2 2 3 4 4 5 5 4 3 1 2 3 3 1 1 2 2 2 1 2 5 5 1 1 3 2 6 7 5 4 3 3 4 4 4 1 1 3 3 2 2 2 5 1 1 2 5 9 11 11 5 2 2 3 2 2 3 3 4 5 5 8 10 9 12 21 25 23 22 20 17 15 16 18 19 19 18 17 19 19 18 21 23 22
4 4 1 3 4 3 1 1 3 5 6 5 3 1 2 2 2 1 1 3 4 4 3 3 6 6 1 1 1 2 3 3 4 5 2 2 4 3 3 2 1 2 4 4 3 1 3 2 3 2 4 9 9 5 2 2 4 4 1 1 4 6 6 6 8 10 12 14 18 23 25 23 18 14 14 16 17 17 18 18 18 19 22 21 20 21 22 21
3 4 1 4 5 2 1 2 3 4 4 4 3 2 1 2 1 2 1 2 3 5 4 3 7 7 1 3 2 0 2 2 4 6 3 1 4 1 1 1 1 4 6 5 3 3 4 5 4 2 3 6 4 2 5 7 5 4 2 3 7 11 10 8 10 11 12 16 20 21 22 20 12 10 14 17 17 18 20 21 21 21 23 23 22 23 23 20
6 6 7 7 4 3 3 3 3 4 3 3 2 1 0 1 0 1 1 1 1 1 1 1 5 6 1 2 2 4 5 5 7 9 5 3 4 2 1 1 1 3 6 4 2 4 6 4 4 4 5 6 4 7 12 9 1 3 1 4 9 12 12 11 9 10 14 20 23 22 18 14 10 11 16 18 18 20 21 21 21 20 23 25 23 22 21 17
8 6 5 7 4 3 2 2 3 4 2 1 1 1 1 1 1 0 1 0 0 2 2 2 2 2 3 4 4 3 5 6 5 4 3 2 1 2 2 2 3 2 1 2 2 2 3 3 4 4 4 8 10 13 14 7 3 2 2 2 8 14 17 16 11 11 16 17 17 18 14 12 15 17 19 19 20 20 20 20 19 20 23 25 23 19 16 16
Wind_Direction
27 32 33 37 42 48 46 37 28 21 20 14 6 358 357 1 4 8 6 11 21 22 15 5 3 7 28 63 65 59 43 44 45 47 49 22 2 1 352 352 359 358 360 4 8 11 10 13 9 9 27 61 22 351 19 18 53 54 83 122 245 205 206 193 194 206 199 275 281 299 254 210 292 308 295 315 274 282 291 270 250 263 261 249 257 268 296 320
48 50 55 57 55 54 47 36 27 17 12 3 360 359 5 12 14 15 17 32 39 28 22 21 31 46 57 63 63 45 41 44 45 43 32 11 5 0 351 355 360 357 1 5 12 25 31 356 340 10 38 46 357 6 26 7 47 82 116 151 235 205 217 201 195 210 211 273 281 285 265 203 263 291 340 302 287 316 310 282 253 259 269 263 264 263 259 241
78 82 77 76 64 49 44 32 21 10 6 2 4 10 15 19 18 19 31 48 40 28 27 30 41 53 52 46 39 18 11 40 39 21 8 8 5 360 355 355 360 1 1 2 7 21 41 3 354 35 42 41 3 1 34 17 5 136 125 228 243 218 243 238 215 229 232 257 286 284 285 209 252 261 300 281 291 303 277 271 271 268 276 275 273 267 248 226
106 99 86 74 55 42 39 25 14 6 5 7 11 18 19 14 13 19 39 49 37 30 30 33 40 44 41 38 26 356 4 51 21 330 356 5 5 3 0 1 2 356 355 359 2 11 35 53 55 55 55 31 340 5 53 346 337 140 143 199 228 197 272 260 219 238 245 223 256 279 348 300 263 201 247 263 312 303 273 253 238 253 276 280 286 287 237 216
115 99 80 60 51 39 29 15 6 4 6 11 15 17 10 360 360 14 43 49 36 33 33 32 28 25 24 25 10 344 29 60 324 326 357 3 6 6 9 14 6 352 352 359 360 15 26 47 60 51 49 32 346 21 29 286 75 148 219 201 203 159 258 268 225 240 244 198 255 279 308 288 274 161 232 194 239 270 272 267 233 241 267 274 285 293 248 218
105 81 70 61 49 26 16 8 5 7 8 12 13 8 359 348 349 18 56 48 36 32 30 22 12 7 357 0 13 13 77 99 306 337 355 359 5 4 10 14 8 359 354 1 11 43 35 31 56 60 43 49 16 40 250 292 56 240 272 264 228 186 227 271 274 260 228 239 260 257 283 304 350 307 235 187 227 243 263 281 285 272 271 273 281 282 260 235
87 73 71 60 33 17 11 8 6 8 9 10 9 4 358 354 11 70 71 43 32 26 22 15 8 6 359 8 44 42 75 124 314 347 350 354 2 357 1 6 7 4 6 23 22 63 79 39 60 124 82 51 96 182 220 304 23 154 253 293 260 196 219 262 304 294 281 260 256 281 327 307 304 300 341 259 253 256 268 285 294 286 285 285 278 265 258 248
85 78 63 37 20 13 8 5 5 9 10 8 9 10 13 25 68 91 76 40 25 22 19 15 9 6 7 85 95 47 48 317 330 352 350 348 351 349 348 351 2 7 32 36 23 98 103 53 89 149 72 34 176 166 166 326 6 152 216 272 268 210 249 292 313 301 295 264 254 47 288 270 258 261 334 278 271 277 285 299 297 293 302 296 276 267 262 255
89 72 40 24 16 11 5 5 8 11 8 7 10 19 34 56 75 76 61 36 26 26 21 21 18 13 12 70 98 62 338 319 341 351 354 353 344 339 336 338 356 9 38 35 27 77 92 114 201 172 147 178 170 177 308 341 304 200 205 256 277 288 301 324 314 303 301 266 146 78 270 277 267 235 283 264 270 299 318 316 308 313 313 304 291 279 267 262
83 50 31 20 12 7 4 7 11 13 11 8 8 20 45 57 57 51 42 35 32 29 22 22 20 20 26 44 79 62 323 334 353 348 353 353 343 332 333 341 352 8 40 33 30 55 75 183 192 145 136 135 160 185 176 156 225 198 218 272 277 300 306 315 287 293 306 263 104 25 290 296 304 346 276 269 283 332 335 318 315 324 309 307 309 298 282 268
69 42 30 16 11 7 6 14 14 13 9 2 358 4 19 21 28 29 33 36 28 22 15 14 11 20 38 55 76 66 333 345 351 347 343 342 344 337 334 341 347 6 36 33 25 34 32 192 162 114 119 120 156 220 219 201 105 132 336 304 298 320 287 290 308 310 332 4 80 355 292 320 8 100 238 283 329 351 337 320 325 338 318 314 313 310 310 284
61 40 25 14 13 10 15 19 15 14 7 0 356 354 4 3 12 14 29 38 19 12 2 4 9 4 31 52 71 49 343 348 347 349 342 336 342 336 320 338 344 358 9 34 22 20 12 196 137 92 304 145 136 335 225 232 55 80 38 342 308 352 2 327 350 335 2 9 347 347 325 348 355 235 257 301 342 350 344 335 338 342 334 330 323 318 320 301
55 35 25 19 18 20 28 26 21 18 12 20 30 35 39 32 9 4 32 26 7 9 359 359 4 354 38 50 43 5 355 356 356 355 349 343 347 341 324 346 338 353 233 49 22 20 20 167 120 93 96 89 312 305 88 24 41 161 43 57 326 4 3 346 359 337 9 6 348 20 351 308 270 264 292 340 2 355 344 339 341 338 334 336 338 336 332 327
52 39 26 23 26 34 41 36 32 32 46 63 64 58 54 56 61 112 42 20 6 3 353 356 2 2 61 61 303 6 1 6 7 2 355 351 4 52 30 6 356 39 81 205 47 44 50 93 83 79 74 62 315 341 31 7 22 334 358 49 30 17 301 329 1 358 21 352 3 47 178 284 296 299 333 35 14 1 338 332 338 336 338 340 342 343 340 343
63 42 28 29 35 44 49 47 44 51 69 69 59 52 47 60 64 306 347 5 4 3 358 3 4 15 71 33 356 1 356 8 8 4 1 356 14 27 352 14 83 47 24 122 86 65 60 74 66 51 330 6 30 30 10 349 15 23 11 345 356 18 298 322 359 47 34 307 2 51 233 283 297 302 338 29 10 4 340 338 349 347 346 347 345 348 345 343
75 38 31 34 43 53 55 49 45 53 69 71 66 57 47 41 323 336 353 330 338 357 9 15 357 29 89 348 328 348 352 359 358 2 7 4 13 1 350 33 76 43 73 102 96 62 41 51 63 50 5 18 32 32 26 12 359 10 34 326 309 355 329 321 344 53 32 313 355 38 335 285 293 309 327 346 360 2 360 2 5 1 357 359 356 357 358 353
64 39 36 43 57 63 59 51 60 78 83 77 67 61 58 51 33 297 300 292 290 333 3 9 345 22 85 353 335 341 335 335 347 0 7 8 8 8 15 54 41 28 88 78 49 26 23 36 59 32 43 43 20 25 48 21 337 334 20 350 285 329 320 317 320 349 24 30 341 360 249 259 277 306 318 339 4 7 13 14 11 14 13 14 12 9 9 6
57 42 45 62 70 70 63 62 78 91 76 55 60 75 74 63 61 61 38 333 255 312 352 0 2 68 23 348 339 318 318 320 343 1 6 8 5 13 25 39 17 11 48 41 28 26 12 20 56 39 24 24 18 40 62 304 280 294 323 329 308 306 262 287 291 321 14 9 319 343 303 278 293 307 325 353 12 20 25 24 21 24 21 19 19 16 13 13
53 53 69 79 81 77 66 61 61 51 10 19 76 110 91 63 59 56 48 51 63 23 16 331 10 103 268 316 313 320 323 313 348 2 2 2 354 8 24 28 41 44 43 16 10 19 17 26 40 32 360 351 355 61 139 210 222 242 256 244 275 292 278 265 263 288 4 336 304 359 310 297 311 319 348 1 14 35 31 30 30 24 23 21 18 16 15 17
71 77 90 94 93 78 51 43 36 28 16 23 164 39 34 27 33 37 30 40 71 88 99 266 337 109 292 301 321 338 342 333 19 5 1 356 343 3 19 18 35 50 51 356 332 2 63 58 34 345 304 300 283 229 198 212 213 215 219 235 253 265 283 282 268 273 355 343 279 162 315 298 306 330 4 11 26 39 30 30 32 24 25 19 16 16 13 14
102 99 115 105 89 62 45 46 47 52 63 75 84 70 96 138 67 72 334 24 61 74 76 242 220 288 299 285 328 347 353 308 356 6 4 1 359 17 2 15 40 36 8 268 282 346 59 63 3 287 259 260 274 235 200 206 192 192 193 247 281 251 266 289 287 274 3 23 283 30 354 305 310 360 26 36 40 39 28 31 30 24 26 18 16 14 9 9
119 118 120 101 78 57 53 59 58 62 64 65 74 84 133 157 110 137 149 79 28 5 43 328 21 357 310 290 344 349 15 349 345 0 3 5 23 30 4 35 57 31 335 355 7 2 43 49 304 286 245 223 26 73 69 4 150 142 178 182 310 291 281 296 273 255 354 8 286 356 356 304 320 44 63 55 55 47 32 37 34 26 25 17 14 10 7 9
123 123 119 100 77 62 64 77 68 59 59 61 70 91 115 110 119 138 84 96 24 345 18 5 50 5 345 21 356 356 48 30 350 348 358 6 26 41 62 43 46 33 359 25 55 54 51 335 299 310 335 56 21 15 29 13 94 131 238 56 309 314 336 304 281 339 333 287 259 311 309 301 340 83 82 63 68 61 39 38 38 33 29 19 11 8 9 9
128 129 124 101 73 60 76 96 76 53 57 66 73 84 99 78 117 134 75 90 348 332 44 51 140 31 8 4 354 4 80 40 4 340 357 14 21 24 75 50 43 37 3 32 78 90 130 273 279 52 29 47 19 350 29 23 349 298 213 187 296 309 284 258 287 323 328 298 248 321 334 317 1 68 57 40 54 49 31 27 31 28 23 15 11 12 14 10
136 138 124 90 64 53 69 96 82 57 48 65 73 71 85 61 42 136 94 66 2 322 341 30 67 21 5 342 351 6 137 24 75 344 357 21 14 13 61 41 70 32 327 342 73 77 311 281 312 25 13 39 39 8 29 34 350 321 243 200 266 303 285 272 301 322 347 350 299 11 11 287 304 57 38 3 29 32 21 23 24 15 12 10 10 10 8 7
143 143 119 76 48 23 13 52 61 44 17 40 61 46 67 36 25 126 111 60 17 327 351 4 6 2 355 340 340 356 106 358 331 5 12 19 3 117 73 349 44 26 300 324 64 97 317 337 56 58 28 28 29 17 359 80 21 332 261 196 270 307 299 301 325 344 350 304 287 50 116 255 306 42 33 8 34 29 17 22 17 8 9 7 5 4 1 1
148 149 126 66 27 12 5 100 29 18 11 14 2 348 324 349 20 125 88 41 12 323 352 342 339 2 357 339 338 42 88 319 313 22 19 11 347 117 71 12 23 7 286 91 30 353 319 348 17 37 34 22 17 0 310 116 25 299 237 353 317 310 300 299 333 191 260 287 316 15 140 225 292 6 26 5 38 28 17 17 11 7 5 0 359 359 358 358
149 164 158 33 9 12 25 58 39 43 29 342 329 334 313 316 12 121 84 65 349 321 18 322 332 0 351 347 8 65 126 313 9 359 347 9 9 27 65 62 136 302 314 84 28 315 316 355 354 18 19 7 358 325 281 140 305 267 264 314 303 293 278 233 163 205 283 350 322 311 119 261 269 251 20 16 43 24 12 7 3 5 2 356 355 353 355 355
137 176 197 344 351 7 21 33 33 24 346 331 340 345 15 99 95 61 73 97 328 342 154 329 349 348 344 356 16 40 358 359 63 322 335 14 15 24 72 94 141 157 319 80 80 302 304 230 227 103 41 330 293 289 242 156 230 278 295 307 297 83 87 111 126 161 29 21 275 273 191 231 271 295 4 17 42 13 357 358 355 360 1 355 351 348 350 350
115 134 30 342 341 352 360 18 28 12 341 332 335 318 51 61 65 58 48 79 344 335 300 15 10 335 358 9 353 357 17 3 320 328 350 14 357 16 86 174 103 99 343 31 76 310 312 265 193 122 125 248 293 298 222 176 246 306 339 329 335 20 46 55 75 99 46 318 256 253 216 167 285 292 12 25 33 338 331 354 351 351 359 356 349 344 344 345
93 80 33 357 349 343 343 358 358 334 312 310 297 308 21 30 61 83 68 280 321 344 360 13 347 0 26 30 344 347 7 339 331 7 11 359 3 16 37 16 37 45 4 6 4 345 357 16 297 279 262 126 350 321 292 187 287 342 5 351 342 340 4 15 0 35 28 289 267 253 181 165 265 257 141 96 45 349 340 354 350 347 350 351 348 342 341 341
84 64 36 13 0 347 341 318 302 289 277 282 298 43 72 39 31 77 322 316 336 349 2 320 314 0 7 8 353 338 339 338 354 44 29 16 36 28 32 31 358 7 13 1 342 349 357 319 300 320 335 76 9 331 332 352 9 10 7 19 15 350 355 353 334 351 279 267 271 259 131 210 251 254 177 152 71 13 352 343 342 340 339 344 345 340 339 337
70 43 21 15 8 356 342 303 277 242 238 250 56 52 76 75 37 302 294 330 1 325 321 260 302 331 340 4 3 334 331 347 356 36 52 72 65 31 23 35 32 22 5 345 352 351 335 313 333 1 344 100 63 15 346 333 354 5 4 34 39 25 354 326 308 321 296 283 281 231 167 256 287 276 180 136 76 348 312 312 321 326 329 336 337 334 337 337
66 46 32 24 18 8 355 316 252 188 182 106 73 51 64 77 305 286 310 290 269 324 345 297 312 330 16 34 345 329 4 344 348 19 12 27 44 12 356 7 19 43 60 32 23 1 351 327 332 12 342 326 23 55 313 290 313 325 198 139 68 61 337 286 267 287 300 298 302 333 284 254 318 146 174 145 97 354 308 296 294 311 321 327 330 334 337 336
69 47 38 30 23 14 9 357 202 172 138 77 66 60 73 89 257 263 302 273 286 326 312 315 355 13 9 343 323 355 24 313 343 31 26 31 50 13 357 346 353 28 61 31 324 352 20 283 271 313 320 321 345 282 172 349 327 283 169 85 18 297 187 219 240 241 276 296 298 311 283 216 35 300 204 183 196 273 322 307 316 334 340 342 339 340 339 333
73 45 34 27 20 14 19 40 111 134 114 79 66 58 95 188 233 171 225 287 333 319 322 345 21 33 349 322 334 357 359 288 340 21 30 56 103 332 4 280 319 21 60 86 279 2 30 280 288 336 335 272 259 265 275 17 329 320 41 351 297 209 149 190 281 288 331 292 274 300 295 292 24 283 244 238 254 298 336 342 350 348 348 348 342 340 337 330
62 46 35 24 14 8 19 45 88 99 86 78 77 80 192 207 190 186 239 349 288 275 42 29 15 23 344 318 324 335 343 341 357 11 6 32 67 25 43 248 263 27 38 175 236 245 140 287 300 343 313 283 202 208 320 16 26 19 352 301 292 69 107 117 286 337 348 286 274 323 301 296 326 283 244 287 319 340 347 349 350 348 349 346 340 341 338 332
350 76 45 19 7 360 6 37 87 90 79 67 73 111 183 208 189 200 223 11 269 32 65 73 20 32 15 316 313 318 341 357 357 7 358 353 13 104 78 335 273 84 328 298 283 324 110 296 297 277 279 295 329 51 348 340 12 37 309 320 1 353 328 10 344 322 320 291 287 310 300 294 286 255 299 332 339 344 342 343 349 349 348 343 341 343 338 332
339 82 43 6 5 17 43 80 90 71 70 70 75 129 176 249 220 210 197 4 198 77 60 53 4 25 34 141 292 303 338 358 334 356 27 7 10 77 83 331 315 16 328 6 126 284 83 358 293 278 291 314 343 27 348 326 344 9 26 12 21 195 267 313 323 297 296 292 298 305 301 301 227 212 293 316 324 335 334 341 349 345 341 339 339 337 329 325
354 92 28 353 4 54 69 70 69 47 62 95 149 141 82 253 255 269 169 56 305 93 60 106 92 13 330 310 285 282 328 327 279 331 1 356 5 36 54 31 329 335 340 47 83 304 351 70 277 288 330 352 350 4 358 343 343 8 41 18 345 335 295 302 296 122 299 297 307 302 290 294 292 186 260 284 304 325 332 340 343 336 334 336 332 325 318 316
40 93 338 348 359 137 67 56 53 40 74 81 110 103 48 156 331 331 258 182 279 79 111 140 128 72 278 335 337 255 301 313 252 265 302 352 26 22 35 67 327 323 351 29 38 7 354 95 259 302 342 348 325 357 60 98 97 69 67 39 338 344 36 342 313 342 39 301 292 289 287 296 330 171 228 281 304 321 336 340 337 331 330 329 323 315 311 312
56 85 324 352 45 106 74 54 23 43 86 62 59 103 14 53 51 342 338 92 51 15 69 108 106 113 170 273 299 247 299 293 271 319 250 332 35 12 351 2 317 301 7 31 326 282 30 106 263 291 288 283 317 57 92 103 93 80 70 48 7 48 83 26 294 315 345 293 282 280 288 296 245 190 243 293 303 320 340 338 329 326 326 323 319 317 316 314
72 99 355 357 30 98 71 63 341 28 72 132 53 114 2 64 52 339 8 23 8 6 25 45 23 15 166 232 282 287 315 257 234 338 358 225 352 340 331 336 321 312 54 45 322 313 45 74 350 303 288 298 43 87 114 98 81 75 58 41 50 58 85 217 242 327 325 290 302 298 284 286 241 305 313 305 303 317 339 332 325 325 325 323 321 321 319 315
107 144 20 16 21 121 86 91 112 63 80 265 45 17 344 34 64 15 7 2 5 76 40 6 251 6 356 168 140 272 318 333 266 345 27 198 317 17 354 339 337 4 53 41 336 341 344 25 28 355 334 339 5 2 304 343 53 77 61 30 68 43 359 283 226 337 287 299 330 311 281 288 316 328 323 314 313 327 334 326 324 324 324 322 321 319 315 312
66 83 342 20 41 71 92 141 137 121 137 92 58 16 355 24 72 47 117 25 9 175 109 332 250 32 9 62 32 319 333 11 306 344 25 326 292 21 12 342 354 46 30 347 322 320 312 236 93 75 351 324 322 314 316 338 352 87 64 9 22 35 16 7 317 303 286 307 314 292 275 296 311 318 318 317 324 335 328 322 323 323 321 317 316 315 313 311
65 52 330 1 31 54 72 103 97 106 136 108 63 14 22 37 305 238 162 136 259 154 64 348 316 23 24 32 23 328 316 9 314 339 360 311 294 306 338 347 11 15 342 358 358 39 91 5 149 141 235 283 275 282 312 2 333 296 355 356 356 12 4 10 4 317 305 302 294 278 289 303 310 316 318 322 333 332 324 321 321 320 317 314 314 312 309 306
92 75 43 348 6 34 45 26 35 69 129 121 92 22 6 340 304 292 162 182 19 84 54 26 37 35 5 15 25 325 315 351 6 343 331 297 285 278 289 42 5 320 333 359 345 70 81 346 306 169 242 268 274 287 316 29 321 267 21 12 345 345 359 22 10 313 307 301 289 301 309 307 309 314 320 330 337 329 322 320 319 317 314 312 311 309 307 305
75 127 199 117 60 46 41 24 46 63 53 74 112 95 3 357 349 339 300 331 16 34 25 30 28 32 12 345 34 351 330 348 353 334 329 323 323 330 341 12 234 317 360 30 334 81 106 343 284 176 265 276 279 291 318 72 197 192 123 12 343 353 359 4 337 304 300 292 291 304 309 306 306 313 324 334 332 323 317 313 313 312 308 308 309 308 307 307
82 111 329 24 86 136 159 6 67 68 46 56 90 71 72 56 8 313 289 356 2 359 32 29 346 354 9 223 88 47 347 352 326 307 301 341 346 353 340 321 254 332 34 42 345 94 119 312 283 199 280 283 280 298 331 263 218 172 170 314 359 354 343 339 319 299 292 286 290 301 305 304 308 319 328 329 325 318 312 310 311 311 309 310 309 307 306 306
140 142 131 61 71 89 38 12 56 69 38 40 72 67 131 151 351 352 21 51 10 346 23 27 322 327 9 161 152 226 265 198 249 262 227 335 324 261 236 293 278 341 18 37 335 349 30 337 311 11 326 282 262 9 330 291 234 195 238 1 3 345 335 330 318 307 302 300 303 309 308 306 315 330 324 322 322 317 311 312 316 315 313 312 310 308 306 306
102 125 134 111 64 4 8 15 59 83 30 8 93 151 191 166 144 5 333 122 113 299 341 331 304 313 17 132 198 254 241 206 227 241 223 235 260 214 184 165 155 340 358 23 351 2 23 345 320 21 356 301 310 350 330 319 156 160 298 2 358 343 331 323 324 324 319 316 317 317 313 311 320 325 319 317 317 312 308 310 313 313 311 308 305 303 304 309
96 94 110 103 75 356 2 2 30 82 73 344 123 149 15 358 256 94 87 15 183 189 201 203 234 308 339 328 321 281 223 212 225 238 219 214 173 87 69 87 92 51 352 69 34 10 37 358 332 10 352 315 328 336 324 325 42 18 289 6 3 347 331 322 325 326 319 318 319 315 312 315 321 323 321 318 316 313 311 311 311 311 309 304 300 300 305 314